User: anonymous   Login
Location: Lynch Observatory
(39.9540°N, 75.1861°W)
Time: 16:12:25
(UTC-04:00)
Language:

FO-29 - Orbit

View from above orbital plane
View from above orbital plane
View from above satellite
View from above satellite

Ground track
Ground track

The orbit data is extracted from the following two-line orbital elements,

1 24278U 96046B   24112.85161852  .00000120  00000-0  15990-3 0  9994
2 24278  98.5768  54.8965 0349703 334.3515  24.0632 13.53183320367063
Epoch (UTC): 21 April 2024 20:26:19
Eccentricity: 0.0349703
inclination: 98.5768°
perigee height: 800 km
apogee height: 1321 km
right ascension of ascending node: 54.8965°
argument of perigee: 334.3515°
revolutions per day: 13.53183320
mean anomaly at epoch: 24.0632°
orbit number at epoch: 36706

The dashed part of the orbit path shows where the satellite is in the earth's shadow,  

DLR